User: anonymous   Login
Location: Wawayanda State Park
(41.1833°N, 74.4333°W)
Time: 08:15:51
(UTC-05:00)
Language:

RESURS DK-1 - Orbit

View from above orbital plane
View from above orbital plane
View from above satellite
View from above satellite

Ground track
Ground track

The orbit data is extracted from the following two-line orbital elements,

1 29228U 06021A   17347.22850698  .00000109  00000-0  15627-4 0  9999
2 29228  69.9355   2.5271 0002072  29.4008 330.7269 15.02259650634988
Epoch (UTC): 13 December 2017 05:29:03
Eccentricity: 0.0002072
inclination: 69.9355°
perigee height: 558 km
apogee height: 561 km
right ascension of ascending node: 2.5271°
argument of perigee: 29.4008°
revolutions per day: 15.02259650
mean anomaly at epoch: 330.7269°
orbit number at epoch: 63498

The dashed part of the orbit path shows where the satellite is in the earth's shadow,  

DLR